Time,TemperatureF,DewpointF,PressureIn,WindDirection,WindDirectionDegrees,WindSpeedMPH,WindSpeedGustMPH,Humidity,HourlyPrecipIn,Conditions,Clouds,dailyrainin,SolarRadiationWatts/m^2,SoftwareType,DateUTC
2013-03-15 00:02:00,50.0,48.0,30.26,West,267,7.0,12.0,93,-99.99,,,-99.99,0.000000,,2013-03-15 07:02:00,
2013-03-15 00:12:00,50.0,48.0,30.26,West,267,7.0,12.0,93,-99.99,,,-99.99,0.000000,,2013-03-15 07:12:00,
2013-03-15 00:42:00,51.0,48.0,30.26,West,272,7.0,12.0,92,-99.99,,,0.00,0.000000,,2013-03-15 07:42:00,
2013-03-15 00:52:00,51.0,48.0,30.26,West,272,7.0,12.0,92,-99.99,,,0.00,0.000000,,2013-03-15 07:52:00,
2013-03-15 01:02:00,51.0,48.0,30.26,West,272,7.0,12.0,92,-99.99,,,0.00,0.000000,,2013-03-15 08:02:00,
2013-03-15 01:12:00,51.0,48.0,30.26,West,272,7.0,12.0,92,-99.99,,,0.00,0.000000,,2013-03-15 08:12:00,
2013-03-15 01:42:00,51.0,49.0,30.26,West,269,5.0,10.0,92,-99.99,,,0.00,0.000000,,2013-03-15 08:42:00,
2013-03-15 01:52:00,51.0,49.0,30.26,West,269,5.0,10.0,92,-99.99,,,0.00,0.000000,,2013-03-15 08:52:00,
2013-03-15 02:02:00,51.0,49.0,30.26,West,269,5.0,10.0,92,-99.99,,,0.00,0.000000,,2013-03-15 09:02:00,
2013-03-15 02:11:00,51.0,49.0,30.26,West,269,5.0,10.0,92,-99.99,,,0.00,0.000000,,2013-03-15 09:11:00,
2013-03-15 02:33:00,51.0,49.0,30.27,West,281,3.0,7.0,93,-99.99,,,0.00,0.000000,,2013-03-15 09:33:00,
2013-03-15 02:43:00,51.0,49.0,30.27,West,281,3.0,7.0,93,-99.99,,,0.00,0.000000,,2013-03-15 09:43:00,
2013-03-15 02:53:00,51.0,49.0,30.27,West,281,3.0,7.0,93,-99.99,,,0.00,0.000000,,2013-03-15 09:53:00,
2013-03-15 03:02:00,51.0,49.0,30.27,West,281,3.0,7.0,93,-99.99,,,0.00,0.000000,,2013-03-15 10:02:00,
2013-03-15 03:12:00,51.0,49.0,30.27,West,281,3.0,7.0,93,-99.99,,,0.00,0.000000,,2013-03-15 10:12:00,
2013-03-15 03:32:00,50.0,49.0,30.27,NE,50,1.0,3.0,94,-99.99,,,0.00,0.000000,,2013-03-15 10:32:00,
2013-03-15 03:42:00,50.0,49.0,30.27,NE,50,1.0,3.0,94,-99.99,,,0.00,0.000000,,2013-03-15 10:42:00,
2013-03-15 03:52:00,50.0,49.0,30.27,NE,50,1.0,3.0,94,-99.99,,,0.00,0.000000,,2013-03-15 10:52:00,
2013-03-15 04:02:00,50.0,49.0,30.27,NE,50,1.0,3.0,94,-99.99,,,0.00,0.000000,,2013-03-15 11:02:00,
2013-03-15 04:12:00,50.0,49.0,30.27,NE,50,1.0,3.0,94,-99.99,,,0.00,0.000000,,2013-03-15 11:12:00,
2013-03-15 04:32:00,50.0,49.0,30.25,ENE,57,1.0,2.0,96,-99.99,,,0.00,0.000000,,2013-03-15 11:32:00,
2013-03-15 04:42:00,50.0,49.0,30.25,ENE,57,1.0,2.0,96,-99.99,,,0.00,0.000000,,2013-03-15 11:42:00,
2013-03-15 04:52:00,50.0,49.0,30.25,ENE,57,1.0,2.0,96,-99.99,,,0.00,0.000000,,2013-03-15 11:52:00,
2013-03-15 05:02:00,50.0,49.0,30.25,ENE,57,1.0,2.0,96,-99.99,,,0.00,0.000000,,2013-03-15 12:02:00,
2013-03-15 05:12:00,50.0,49.0,30.25,ENE,57,1.0,2.0,96,-99.99,,,0.00,0.000000,,2013-03-15 12:12:00,
2013-03-15 05:42:00,50.0,49.0,30.26,NNE,12,0.0,2.0,96,-99.99,,,0.00,0.000000,,2013-03-15 12:42:00,
2013-03-15 05:52:00,50.0,49.0,30.26,NNE,12,0.0,2.0,96,-99.99,,,0.00,0.000000,,2013-03-15 12:52:00,
2013-03-15 06:02:00,50.0,49.0,30.26,NNE,12,0.0,2.0,96,-99.99,,,0.00,0.000000,,2013-03-15 13:02:00,
2013-03-15 06:12:00,50.0,49.0,30.26,NNE,12,0.0,2.0,96,-99.99,,,0.00,0.000000,,2013-03-15 13:12:00,
2013-03-15 06:42:00,50.0,49.0,30.27,South,175,0.0,2.0,97,-99.99,,,-99.99,0.000000,,2013-03-15 13:42:00,
2013-03-15 06:52:00,50.0,49.0,30.27,South,175,0.0,2.0,97,-99.99,,,-99.99,0.000000,,2013-03-15 13:52:00,
2013-03-15 07:02:00,50.0,49.0,30.27,South,175,0.0,2.0,97,-99.99,,,-99.99,0.000000,,2013-03-15 14:02:00,
2013-03-15 07:11:00,50.0,49.0,30.27,South,175,0.0,2.0,97,-99.99,,,-99.99,0.000000,,2013-03-15 14:11:00,
2013-03-15 07:42:00,49.0,48.0,30.27,NW,317,0.0,2.0,97,-99.99,,,-99.99,0.460000,,2013-03-15 14:42:00,
2013-03-15 07:53:00,49.0,48.0,30.27,NW,317,0.0,2.0,97,-99.99,,,-99.99,0.460000,,2013-03-15 14:53:00,
2013-03-15 08:02:00,49.0,48.0,30.27,NW,317,0.0,2.0,97,-99.99,,,-99.99,0.460000,,2013-03-15 15:02:00,
2013-03-15 08:12:00,49.0,48.0,30.27,NW,317,0.0,2.0,97,-99.99,,,-99.99,0.460000,,2013-03-15 15:12:00,
2013-03-15 08:42:00,50.0,49.0,30.28,NNW,336,0.0,2.0,97,-99.99,,,-99.99,8.480000,,2013-03-15 15:42:00,
2013-03-15 08:53:00,50.0,49.0,30.28,NNW,336,0.0,2.0,97,-99.99,,,-99.99,8.480000,,2013-03-15 15:53:00,
2013-03-15 09:02:00,50.0,49.0,30.28,NNW,336,0.0,2.0,97,-99.99,,,-99.99,8.480000,,2013-03-15 16:02:00,
2013-03-15 09:12:00,50.0,49.0,30.28,NNW,336,0.0,2.0,97,-99.99,,,-99.99,8.480000,,2013-03-15 16:12:00,
2013-03-15 09:42:00,50.0,49.0,30.29,WNW,290,0.0,1.0,97,-99.99,,,-99.99,27.200001,,2013-03-15 16:42:00,
2013-03-15 09:52:00,50.0,49.0,30.29,WNW,290,0.0,1.0,97,-99.99,,,-99.99,27.200001,,2013-03-15 16:52:00,
2013-03-15 10:02:00,50.0,49.0,30.29,WNW,290,0.0,1.0,97,-99.99,,,-99.99,27.200001,,2013-03-15 17:02:00,
2013-03-15 10:12:00,50.0,49.0,30.29,WNW,290,0.0,1.0,97,-99.99,,,-99.99,27.200001,,2013-03-15 17:12:00,
2013-03-15 10:42:00,52.0,51.0,30.29,SW,224,0.0,2.0,97,-99.99,,,-99.99,216.630005,,2013-03-15 17:42:00,
2013-03-15 10:53:00,52.0,51.0,30.29,SW,224,0.0,2.0,97,-99.99,,,-99.99,216.630005,,2013-03-15 17:53:00,
2013-03-15 11:02:00,52.0,51.0,30.29,SW,224,0.0,2.0,97,-99.99,,,-99.99,216.630005,,2013-03-15 18:02:00,
2013-03-15 11:12:00,52.0,51.0,30.29,SW,224,0.0,2.0,97,-99.99,,,-99.99,216.630005,,2013-03-15 18:12:00,
2013-03-15 11:42:00,55.0,52.0,30.28,WSW,249,1.0,3.0,89,-99.99,,,-99.99,261.609985,,2013-03-15 18:42:00,
2013-03-15 11:52:00,55.0,52.0,30.28,WSW,249,1.0,3.0,89,-99.99,,,-99.99,261.609985,,2013-03-15 18:52:00,
2013-03-15 12:02:00,55.0,52.0,30.28,WSW,249,1.0,3.0,89,-99.99,,,-99.99,261.609985,,2013-03-15 19:02:00,
2013-03-15 12:12:00,55.0,52.0,30.28,WSW,249,1.0,3.0,89,-99.99,,,-99.99,261.609985,,2013-03-15 19:12:00,
2013-03-15 12:42:00,56.0,50.0,30.29,WSW,254,4.0,6.0,80,-99.99,,,-99.99,410.140015,,2013-03-15 19:42:00,
2013-03-15 12:52:00,56.0,50.0,30.29,WSW,254,4.0,6.0,80,-99.99,,,-99.99,410.140015,,2013-03-15 19:52:00,
2013-03-15 13:02:00,56.0,50.0,30.29,WSW,254,4.0,6.0,80,-99.99,,,-99.99,410.140015,,2013-03-15 20:02:00,
2013-03-15 13:12:00,56.0,50.0,30.29,WSW,254,4.0,6.0,80,-99.99,,,-99.99,410.140015,,2013-03-15 20:12:00,
2013-03-15 13:42:00,58.0,50.0,30.28,WSW,253,4.0,7.0,74,-99.99,,,-99.99,448.959991,,2013-03-15 20:42:00,
2013-03-15 13:52:00,58.0,50.0,30.28,WSW,253,4.0,7.0,74,-99.99,,,-99.99,448.959991,,2013-03-15 20:52:00,
2013-03-15 14:02:00,58.0,50.0,30.28,WSW,253,4.0,7.0,74,-99.99,,,-99.99,448.959991,,2013-03-15 21:02:00,
2013-03-15 14:11:00,58.0,50.0,30.28,WSW,253,4.0,7.0,74,-99.99,,,-99.99,448.959991,,2013-03-15 21:11:00,
2013-03-15 14:43:00,60.0,49.0,30.26,West,265,4.0,9.0,66,-99.99,,,-99.99,528.799988,,2013-03-15 21:43:00,
2013-03-15 14:52:00,60.0,49.0,30.26,West,265,4.0,9.0,66,-99.99,,,-99.99,528.799988,,2013-03-15 21:52:00,
2013-03-15 15:03:00,60.0,49.0,30.26,West,265,4.0,9.0,66,-99.99,,,-99.99,528.799988,,2013-03-15 22:03:00,
2013-03-15 15:12:00,60.0,49.0,30.26,West,265,4.0,9.0,66,-99.99,,,-99.99,528.799988,,2013-03-15 22:12:00,
2013-03-15 15:42:00,60.0,47.0,30.24,West,262,6.0,11.0,62,-99.99,,,-99.99,390.380005,,2013-03-15 22:42:00,
2013-03-15 15:52:00,60.0,47.0,30.24,West,262,6.0,11.0,62,-99.99,,,-99.99,390.380005,,2013-03-15 22:52:00,
2013-03-15 16:02:00,60.0,47.0,30.24,West,262,6.0,11.0,62,-99.99,,,-99.99,390.380005,,2013-03-15 23:02:00,
2013-03-15 16:12:00,60.0,47.0,30.24,West,262,6.0,11.0,62,-99.99,,,-99.99,390.380005,,2013-03-15 23:12:00,
2013-03-15 16:42:00,61.0,46.0,30.23,WSW,254,6.0,10.0,58,-99.99,,,-99.99,246.970001,,2013-03-15 23:42:00,
2013-03-15 16:53:00,61.0,46.0,30.23,WSW,254,6.0,10.0,58,-99.99,,,-99.99,246.970001,,2013-03-15 23:53:00,
2013-03-15 17:02:00,61.0,46.0,30.23,WSW,254,6.0,10.0,58,-99.99,,,-99.99,246.970001,,2013-03-16 00:02:00,
2013-03-15 17:12:00,61.0,46.0,30.23,WSW,254,6.0,10.0,58,-99.99,,,-99.99,246.970001,,2013-03-16 00:12:00,
2013-03-15 18:42:00,58.0,49.0,30.21,SE,132,2.0,7.0,72,-99.99,,,-99.99,25.450001,,2013-03-16 01:42:00,
2013-03-15 18:52:00,58.0,49.0,30.21,SE,132,2.0,7.0,72,-99.99,,,-99.99,25.450001,,2013-03-16 01:52:00,
2013-03-15 19:02:00,58.0,49.0,30.21,SE,132,2.0,7.0,72,-99.99,,,-99.99,25.450001,,2013-03-16 02:02:00,
2013-03-15 19:12:00,58.0,49.0,30.21,SE,132,2.0,7.0,72,-99.99,,,-99.99,25.450001,,2013-03-16 02:12:00,
2013-03-15 19:42:00,57.0,49.0,30.21,East,82,2.0,8.0,74,-99.99,,,-99.99,1.980000,,2013-03-16 02:42:00,
2013-03-15 19:52:00,57.0,49.0,30.21,East,82,2.0,8.0,74,-99.99,,,-99.99,1.980000,,2013-03-16 02:52:00,
2013-03-15 20:02:00,57.0,49.0,30.21,East,82,2.0,8.0,74,-99.99,,,-99.99,1.980000,,2013-03-16 03:02:00,
2013-03-15 20:12:00,57.0,49.0,30.21,East,82,2.0,8.0,74,-99.99,,,-99.99,1.980000,,2013-03-16 03:12:00,
2013-03-15 20:43:00,55.0,48.0,30.22,SE,146,4.0,14.0,76,-99.99,,,-99.99,0.120000,,2013-03-16 03:43:00,
2013-03-15 20:53:00,55.0,48.0,30.22,SE,146,4.0,14.0,76,-99.99,,,-99.99,0.120000,,2013-03-16 03:53:00,
2013-03-15 21:02:00,55.0,48.0,30.22,SE,146,4.0,14.0,76,-99.99,,,-99.99,0.120000,,2013-03-16 04:02:00,
2013-03-15 21:12:00,55.0,48.0,30.22,SE,146,4.0,14.0,76,-99.99,,,-99.99,0.120000,,2013-03-16 04:12:00,
2013-03-15 21:42:00,54.0,46.0,30.21,SSE,152,6.0,14.0,75,-99.99,,,-99.99,0.120000,,2013-03-16 04:42:00,
2013-03-15 21:53:00,54.0,46.0,30.21,SSE,152,6.0,14.0,75,-99.99,,,-99.99,0.120000,,2013-03-16 04:53:00,
2013-03-15 22:02:00,54.0,46.0,30.21,SSE,152,6.0,14.0,75,-99.99,,,-99.99,0.120000,,2013-03-16 05:02:00,
2013-03-15 22:12:00,54.0,46.0,30.21,SSE,152,6.0,14.0,75,-99.99,,,-99.99,0.120000,,2013-03-16 05:12:00,
2013-03-15 22:32:00,54.0,46.0,30.21,West,263,1.0,6.0,76,-99.99,,,-99.99,0.120000,,2013-03-16 05:32:00,
2013-03-15 22:42:00,54.0,46.0,30.21,West,263,1.0,6.0,76,-99.99,,,-99.99,0.120000,,2013-03-16 05:42:00,
2013-03-15 22:53:00,54.0,46.0,30.21,West,263,1.0,6.0,76,-99.99,,,-99.99,0.120000,,2013-03-16 05:53:00,
2013-03-15 23:02:00,54.0,46.0,30.21,West,263,1.0,6.0,76,-99.99,,,-99.99,0.120000,,2013-03-16 06:02:00,
2013-03-15 23:12:00,54.0,46.0,30.21,West,263,1.0,6.0,76,-99.99,,,-99.99,0.120000,,2013-03-16 06:12:00,
2013-03-15 23:42:00,52.0,46.0,30.21,SSE,167,1.0,4.0,79,-99.99,,,-99.99,0.120000,,2013-03-16 06:42:00,
2013-03-15 23:52:00,52.0,46.0,30.21,SSE,167,1.0,4.0,79,-99.99,,,-99.99,0.120000,,2013-03-16 06:52:00,